| time (UTC) | temp F | wind direction | speed MPH | gust MPH | rain 1hr in | rain 24hr in | rain mn in | humidity % | barometer mb |
| 20260903182403 | 78 | 249 | 1.0 | 8.0 | 0.00 | 0.00 | 0.00 | 29 | 1031.8 |
| 20260903181904 | 78 | 241 | 2.0 | 7.0 | 0.00 | 0.00 | 0.00 | 30 | 1031.8 |
| 20260903181404 | 77 | 209 | 5.0 | 7.0 | 0.00 | 0.00 | 0.00 | 31 | 1031.9 |
| 20260903180904 | 77 | 190 | 5.0 | 8.0 | 0.00 | 0.00 | 0.00 | 34 | 1031.9 |
| 20260903180403 | 77 | 231 | 5.0 | 8.0 | 0.00 | 0.00 | 0.00 | 34 | 1031.9 |
| 20260903175903 | 76 | 122 | 1.0 | 7.0 | 0.00 | 0.00 | 0.00 | 38 | 1031.9 |
| 20260903175404 | 76 | 168 | 3.0 | 6.0 | 0.00 | 0.00 | 0.00 | 40 | 1032.0 |
| 20260903174903 | 75 | 92 | 2.0 | 3.0 | 0.00 | 0.00 | 0.00 | 40 | 1032.0 |
| 20260903174404 | 75 | 145 | 4.0 | 8.0 | 0.00 | 0.00 | 0.00 | 41 | 1031.9 |
| 20260903173903 | 74 | 177 | 1.0 | 3.0 | 0.00 | 0.00 | 0.00 | 42 | 1032.1 |
| 20260903173404 | 74 | 259 | 3.0 | 7.0 | 0.00 | 0.00 | 0.00 | 44 | 1032.1 |
| 20260903172904 | 74 | 276 | 3.0 | 6.0 | 0.00 | 0.00 | 0.00 | 43 | 1032.1 |
| 20260903172405 | 74 | 147 | 0.0 | 3.0 | 0.00 | 0.00 | 0.00 | 45 | 1032.1 |
| 20260903171903 | 73 | 265 | 3.0 | 6.0 | 0.00 | 0.00 | 0.00 | 45 | 1032.1 |
| 20260903171404 | 73 | 250 | 1.0 | 3.0 | 0.00 | 0.00 | 0.00 | 48 | 1032.1 |
| 20260903170903 | 72 | 359 | 1.0 | 3.0 | 0.00 | 0.00 | 0.00 | 47 | 1032.1 |
| 20260903170403 | 72 | 253 | 2.0 | 6.0 | 0.00 | 0.00 | 0.00 | 47 | 1032.1 |
| 20260903165904 | 73 | 265 | 2.0 | 3.0 | 0.00 | 0.00 | 0.00 | 47 | 1032.1 |
| 20260903165403 | 73 | 173 | 1.0 | 6.0 | 0.00 | 0.00 | 0.00 | 47 | 1032.1 |
| 20260903164904 | 72 | 198 | 2.0 | 3.0 | 0.00 | 0.00 | 0.00 | 47 | 1032.2 |
| 20260903164404 | 72 | 282 | 2.0 | 3.0 | 0.00 | 0.00 | 0.00 | 48 | 1032.2 |
| 20260903163903 | 72 | 188 | 0.0 | 2.0 | 0.00 | 0.00 | 0.00 | 48 | 1032.2 |
| 20260903161903 | 71 | 220 | 0.0 | 3.0 | 0.00 | 0.00 | 0.00 | 46 | 1032.2 |
| 20260903161403 | 70 | 172 | 1.0 | 3.0 | 0.00 | 0.00 | 0.00 | 47 | 1032.3 |
| 20260903160903 | 70 | 238 | 1.0 | 3.0 | 0.00 | 0.00 | 0.00 | 45 | 1032.3 |
| 20260903160403 | 69 | 242 | 1.0 | 3.0 | 0.00 | 0.00 | 0.00 | 42 | 1032.4 |
| 20260903155903 | 69 | 221 | 0.0 | 0.0 | 0.00 | 0.00 | 0.00 | 42 | 1032.3 |
| 20260903155403 | 69 | 182 | 0.0 | 0.0 | 0.00 | 0.00 | 0.00 | 43 | 1032.4 |
| 20260903154903 | 68 | 203 | 0.0 | 0.0 | 0.00 | 0.00 | 0.00 | 42 | 1032.4 |
| 20260903154403 | 68 | 92 | 0.0 | 0.0 | 0.00 | 0.00 | 0.00 | 41 | 1032.5 |
| 20260903153903 | 67 | 101 | 1.0 | 3.0 | 0.00 | 0.00 | 0.00 | 40 | 1032.7 |
| 20260903153403 | 67 | 87 | 0.0 | 3.0 | 0.00 | 0.00 | 0.00 | 41 | 1032.7 |
| 20260903152903 | 66 | 96 | 2.0 | 3.0 | 0.00 | 0.00 | 0.00 | 41 | 1032.7 |
| 20260903151903 | 65 | 102 | 0.0 | 0.0 | 0.00 | 0.00 | 0.00 | 44 | 1032.7 |
| 20260903151403 | 65 | 102 | 0.0 | 0.0 | 0.00 | 0.00 | 0.00 | 43 | 1032.7 |
| 20260903150903 | 64 | 102 | 1.0 | 3.0 | 0.00 | 0.00 | 0.00 | 43 | 1032.7 |
| 20260903150403 | 63 | 117 | 0.0 | 0.0 | 0.00 | 0.00 | 0.00 | 44 | 1032.8 |
| 20260903145903 | 63 | 115 | 0.0 | 0.0 | 0.00 | 0.00 | 0.00 | 46 | 1032.7 |
| 20260903145403 | 62 | 115 | 0.0 | 0.0 | 0.00 | 0.00 | 0.00 | 46 | 1032.7 |
| 20260903144403 | 61 | 115 | 0.0 | 0.0 | 0.00 | 0.00 | 0.00 | 47 | 1032.5 |
| 20260903143903 | 60 | 115 | 0.0 | 2.0 | 0.00 | 0.00 | 0.00 | 46 | 1032.5 |
| 20260903142403 | 59 | 120 | 0.0 | 2.0 | 0.00 | 0.00 | 0.00 | 50 | 1032.3 |
| 20260903141904 | 58 | 110 | 0.0 | 3.0 | 0.00 | 0.00 | 0.00 | 50 | 1032.2 |
| 20260903141403 | 58 | 103 | 0.0 | 3.0 | 0.00 | 0.00 | 0.00 | 52 | 1032.2 |
| 20260903140903 | 57 | 114 | 2.0 | 3.0 | 0.00 | 0.00 | 0.00 | 53 | 1032.2 |
| 20260903140403 | 56 | 122 | 2.0 | 3.0 | 0.00 | 0.00 | 0.00 | 54 | 1032.2 |
| 20260903135903 | 56 | 114 | 0.0 | 3.0 | 0.00 | 0.00 | 0.00 | 58 | 1032.1 |
| 20260903135403 | 56 | 114 | 0.0 | 2.0 | 0.00 | 0.00 | 0.00 | 58 | 1032.0 |
| 20260903134903 | 56 | 114 | 1.0 | 2.0 | 0.00 | 0.00 | 0.00 | 58 | 1032.0 |
| 20260903134404 | 56 | 114 | 0.0 | 0.0 | 0.00 | 0.00 | 0.00 | 59 | 1031.9 |
| 20260903133903 | 56 | 114 | 0.0 | 0.0 | 0.00 | 0.00 | 0.00 | 59 | 1031.8 |
| 20260903133403 | 56 | 114 | 0.0 | 0.0 | 0.00 | 0.00 | 0.00 | 59 | 1031.8 |
| 20260903131904 | 57 | 114 | 0.0 | 0.0 | 0.00 | 0.00 | 0.00 | 59 | 1031.8 |
| 20260903131403 | 57 | 114 | 0.0 | 0.0 | 0.00 | 0.00 | 0.00 | 60 | 1031.9 |
| 20260903130904 | 57 | 114 | 0.0 | 0.0 | 0.00 | 0.00 | 0.00 | 60 | 1031.9 |
| 20260903130404 | 57 | 114 | 0.0 | 0.0 | 0.00 | 0.00 | 0.00 | 60 | 1031.8 |
| 20260903125403 | 57 | 114 | 0.0 | 0.0 | 0.00 | 0.00 | 0.00 | 60 | 1031.9 |
| 20260903124903 | 57 | 114 | 0.0 | 0.0 | 0.00 | 0.00 | 0.00 | 60 | 1031.9 |
| 20260903124403 | 57 | 114 | 0.0 | 0.0 | 0.00 | 0.00 | 0.00 | 60 | 1031.8 |
| 20260903123903 | 57 | 114 | 0.0 | 0.0 | 0.00 | 0.00 | 0.00 | 59 | 1031.8 |
| 20260903123403 | 57 | 114 | 0.0 | 0.0 | 0.00 | 0.00 | 0.00 | 60 | 1031.6 |
| 20260903122904 | 57 | 114 | 0.0 | 3.0 | 0.00 | 0.00 | 0.00 | 60 | 1031.6 |
| 20260903122403 | 57 | 114 | 1.0 | 3.0 | 0.00 | 0.00 | 0.00 | 60 | 1031.7 |
| 20260903121904 | 57 | 114 | 1.0 | 3.0 | 0.00 | 0.00 | 0.00 | 60 | 1031.6 |
| 20260903120404 | 58 | 93 | 2.0 | 3.0 | 0.00 | 0.00 | 0.00 | 59 | 1031.5 |
| 20260903115403 | 58 | 93 | 0.0 | 2.0 | 0.00 | 0.00 | 0.00 | 58 | 1031.6 |
| 20260903114903 | 58 | 93 | 1.0 | 3.0 | 0.00 | 0.00 | 0.00 | 58 | 1031.7 |
| 20260903114403 | 58 | 92 | 2.0 | 3.0 | 0.00 | 0.00 | 0.00 | 59 | 1031.7 |
| 20260903113904 | 59 | 94 | 2.0 | 3.0 | 0.00 | 0.00 | 0.00 | 59 | 1031.8 |
| 20260903113404 | 59 | 106 | 2.0 | 3.0 | 0.00 | 0.00 | 0.00 | 59 | 1031.9 |
| 20260903112903 | 59 | 135 | 1.0 | 3.0 | 0.00 | 0.00 | 0.00 | 59 | 1031.9 |
| 20260903112404 | 59 | 142 | 1.0 | 3.0 | 0.00 | 0.00 | 0.00 | 59 | 1031.9 |
| 20260903111904 | 59 | 142 | 2.0 | 3.0 | 0.00 | 0.00 | 0.00 | 60 | 1031.9 |
| 20260903111404 | 59 | 142 | 0.0 | 2.0 | 0.00 | 0.00 | 0.00 | 60 | 1031.9 |
| 20260903110903 | 59 | 142 | 0.0 | 3.0 | 0.00 | 0.00 | 0.00 | 61 | 1031.9 |
| 20260903110403 | 59 | 142 | 0.0 | 0.0 | 0.00 | 0.00 | 0.00 | 61 | 1031.9 |
| 20260903105903 | 59 | 142 | 0.0 | 0.0 | 0.00 | 0.00 | 0.00 | 60 | 1031.9 |
| 20260903105404 | 59 | 142 | 0.0 | 0.0 | 0.00 | 0.00 | 0.00 | 60 | 1032.0 |
| 20260903104904 | 59 | 203 | 0.0 | 0.0 | 0.00 | 0.00 | 0.00 | 60 | 1032.0 |
| 20260903104404 | 59 | 203 | 0.0 | 0.0 | 0.00 | 0.00 | 0.00 | 60 | 1032.0 |
| 20260903103904 | 59 | 203 | 0.0 | 0.0 | 0.00 | 0.00 | 0.00 | 60 | 1032.1 |
| 20260903103404 | 59 | 203 | 0.0 | 0.0 | 0.00 | 0.00 | 0.00 | 60 | 1032.1 |
| 20260903102404 | 60 | 203 | 0.0 | 0.0 | 0.00 | 0.00 | 0.00 | 64 | 1032.0 |
| 20260903101403 | 60 | 203 | 0.0 | 0.0 | 0.00 | 0.00 | 0.00 | 64 | 1032.1 |
| 20260903100903 | 60 | 203 | 0.0 | 0.0 | 0.00 | 0.00 | 0.00 | 65 | 1032.1 |
| 20260903095403 | 60 | 203 | 0.0 | 0.0 | 0.00 | 0.00 | 0.00 | 64 | 1032.0 |
| 20260903094403 | 61 | 203 | 0.0 | 0.0 | 0.00 | 0.00 | 0.00 | 64 | 1032.0 |
| 20260903093903 | 61 | 203 | 0.0 | 0.0 | 0.00 | 0.00 | 0.00 | 66 | 1032.0 |
| 20260903093404 | 62 | 203 | 0.0 | 0.0 | 0.00 | 0.00 | 0.00 | 71 | 1032.0 |
| 20260903092904 | 62 | 203 | 0.0 | 0.0 | 0.00 | 0.00 | 0.00 | 72 | 1032.1 |
| 20260903092403 | 62 | 203 | 0.0 | 0.0 | 0.00 | 0.00 | 0.00 | 70 | 1032.0 |
| 20260903091903 | 62 | 203 | 0.0 | 0.0 | 0.00 | 0.00 | 0.00 | 69 | 1032.1 |
| 20260903090904 | 62 | 203 | 0.0 | 0.0 | 0.00 | 0.00 | 0.00 | 69 | 1032.1 |
| 20260903090403 | 63 | 203 | 0.0 | 0.0 | 0.00 | 0.00 | 0.00 | 74 | 1032.1 |
| 20260903085904 | 63 | 203 | 0.0 | 0.0 | 0.00 | 0.00 | 0.00 | 74 | 1032.1 |
| 20260903084903 | 63 | 203 | 0.0 | 0.0 | 0.00 | 0.00 | 0.00 | 73 | 1032.3 |
| 20260903084403 | 63 | 203 | 0.0 | 0.0 | 0.00 | 0.00 | 0.00 | 73 | 1032.4 |
| 20260903083903 | 63 | 203 | 0.0 | 0.0 | 0.00 | 0.00 | 0.00 | 73 | 1032.4 |
| 20260903083404 | 63 | 203 | 0.0 | 0.0 | 0.00 | 0.00 | 0.00 | 72 | 1032.4 |
| 20260903082904 | 63 | 180 | 0.0 | 0.0 | 0.00 | 0.00 | 0.00 | 71 | 1032.4 |
| 20260903082403 | 63 | 148 | 0.0 | 0.0 | 0.00 | 0.00 | 0.00 | 71 | 1032.4 |
| 20260903081903 | 63 | 148 | 0.0 | 0.0 | 0.00 | 0.00 | 0.00 | 70 | 1032.4 |
| 20260903081404 | 64 | 148 | 0.0 | 2.0 | 0.00 | 0.00 | 0.00 | 70 | 1032.5 |
| 20260903080904 | 64 | 148 | 1.0 | 3.0 | 0.00 | 0.00 | 0.00 | 70 | 1032.4 |
| 20260903080403 | 64 | 148 | 1.0 | 2.0 | 0.00 | 0.00 | 0.00 | 70 | 1032.4 |
| 20260903075903 | 64 | 148 | 1.0 | 3.0 | 0.00 | 0.00 | 0.00 | 69 | 1032.5 |
| 20260903074904 | 64 | 217 | 0.0 | 0.0 | 0.00 | 0.00 | 0.00 | 68 | 1032.5 |
| 20260903074404 | 64 | 217 | 0.0 | 2.0 | 0.00 | 0.00 | 0.00 | 67 | 1032.5 |
| 20260903073904 | 64 | 217 | 0.0 | 0.0 | 0.00 | 0.00 | 0.00 | 66 | 1032.4 |
| 20260903073403 | 64 | 217 | 0.0 | 0.0 | 0.00 | 0.00 | 0.00 | 66 | 1032.5 |
| 20260903072903 | 65 | 217 | 0.0 | 0.0 | 0.00 | 0.00 | 0.00 | 65 | 1032.5 |
| 20260903072403 | 65 | 217 | 0.0 | 0.0 | 0.00 | 0.00 | 0.00 | 65 | 1032.5 |
| 20260903071903 | 65 | 217 | 0.0 | 0.0 | 0.00 | 0.00 | 0.00 | 64 | 1032.5 |
| 20260903071404 | 65 | 217 | 0.0 | 0.0 | 0.00 | 0.00 | 0.00 | 63 | 1032.6 |
| 20260903070903 | 65 | 217 | 0.0 | 0.0 | 0.00 | 0.00 | 0.00 | 63 | 1032.6 |
| 20260903070403 | 65 | 217 | 0.0 | 0.0 | 0.00 | 0.00 | 0.00 | 63 | 1032.6 |
| 20260903065404 | 66 | 217 | 0.0 | 0.0 | 0.00 | 0.00 | 0.00 | 62 | 1032.6 |
| 20260903064903 | 66 | 217 | 0.0 | 2.0 | 0.00 | 0.00 | 0.00 | 61 | 1032.6 |
| 20260903064404 | 66 | 217 | 1.0 | 3.0 | 0.00 | 0.00 | 0.00 | 61 | 1032.6 |
| 20260903063904 | 66 | 210 | 1.0 | 5.0 | 0.00 | 0.00 | 0.00 | 60 | 1032.6 |
| 20260903063403 | 66 | 169 | 2.0 | 3.0 | 0.00 | 0.00 | 0.00 | 58 | 1032.6 |
| 20260903062903 | 66 | 159 | 1.0 | 3.0 | 0.00 | 0.00 | 0.00 | 56 | 1032.7 |
| 20260903062403 | 67 | 184 | 0.0 | 0.0 | 0.00 | 0.00 | 0.00 | 55 | 1032.7 |
| 20260903061403 | 67 | 184 | 0.0 | 0.0 | 0.00 | 0.00 | 0.00 | 53 | 1032.7 |
| 20260903060903 | 67 | 184 | 1.0 | 2.0 | 0.00 | 0.00 | 0.00 | 51 | 1032.7 |
| 20260903060404 | 67 | 184 | 0.0 | 0.0 | 0.00 | 0.00 | 0.00 | 50 | 1032.8 |
| 20260903055404 | 68 | 184 | 0.0 | 0.0 | 0.00 | 0.00 | 0.00 | 49 | 1032.8 |
| 20260903054903 | 68 | 184 | 0.0 | 3.0 | 0.00 | 0.00 | 0.00 | 48 | 1032.8 |
| 20260903054403 | 68 | 184 | 2.0 | 3.0 | 0.00 | 0.00 | 0.00 | 47 | 1032.8 |
| 20260903053904 | 68 | 190 | 1.0 | 3.0 | 0.00 | 0.00 | 0.00 | 47 | 1032.9 |
| 20260903052903 | 69 | 192 | 2.0 | 5.0 | 0.00 | 0.00 | 0.00 | 45 | 1032.8 |
| 20260903052404 | 69 | 200 | 2.0 | 3.0 | 0.00 | 0.00 | 0.00 | 44 | 1032.8 |
| 20260903051904 | 70 | 200 | 2.0 | 5.0 | 0.00 | 0.00 | 0.00 | 44 | 1032.7 |
| 20260903051404 | 70 | 195 | 3.0 | 5.0 | 0.00 | 0.00 | 0.00 | 43 | 1032.8 |
| 20260903050904 | 71 | 216 | 2.0 | 3.0 | 0.00 | 0.00 | 0.00 | 42 | 1032.8 |
| 20260903050403 | 71 | 229 | 0.0 | 0.0 | 0.00 | 0.00 | 0.00 | 43 | 1032.7 |
| 20260903045903 | 71 | 229 | 1.0 | 3.0 | 0.00 | 0.00 | 0.00 | 43 | 1032.7 |
| 20260903045404 | 71 | 229 | 2.0 | 3.0 | 0.00 | 0.00 | 0.00 | 43 | 1032.7 |
| 20260903044904 | 71 | 185 | 1.0 | 3.0 | 0.00 | 0.00 | 0.00 | 41 | 1032.6 |
| 20260903044403 | 72 | 227 | 2.0 | 3.0 | 0.00 | 0.00 | 0.00 | 39 | 1032.6 |
| 20260903043904 | 72 | 219 | 1.0 | 3.0 | 0.00 | 0.00 | 0.00 | 39 | 1032.5 |
| 20260903043403 | 72 | 211 | 3.0 | 5.0 | 0.00 | 0.00 | 0.00 | 37 | 1032.5 |
| 20260903042903 | 72 | 215 | 4.0 | 6.0 | 0.00 | 0.00 | 0.00 | 37 | 1032.5 |
| 20260903042406 | 72 | 213 | 2.0 | 5.0 | 0.00 | 0.00 | 0.00 | 37 | 1032.5 |
| 20260903041903 | 72 | 208 | 2.0 | 5.0 | 0.00 | 0.00 | 0.00 | 37 | 1032.4 |
| 20260903041404 | 72 | 203 | 2.0 | 3.0 | 0.00 | 0.00 | 0.00 | 37 | 1032.4 |
| 20260903040903 | 72 | 198 | 2.0 | 3.0 | 0.00 | 0.00 | 0.00 | 36 | 1032.3 |
| 20260903040403 | 73 | 174 | 1.0 | 3.0 | 0.00 | 0.00 | 0.00 | 35 | 1032.2 |
| 20260903035903 | 73 | 167 | 1.0 | 3.0 | 0.00 | 0.00 | 0.00 | 34 | 1032.2 |
| 20260903035403 | 73 | 135 | 2.0 | 5.0 | 0.00 | 0.00 | 0.00 | 34 | 1032.1 |
| 20260903034903 | 73 | 136 | 2.0 | 3.0 | 0.00 | 0.00 | 0.00 | 34 | 1032.0 |
| 20260903034403 | 73 | 133 | 3.0 | 7.0 | 0.00 | 0.00 | 0.00 | 35 | 1032.0 |
| 20260903033903 | 73 | 135 | 2.0 | 6.0 | 0.00 | 0.00 | 0.00 | 35 | 1032.0 |
| 20260903032903 | 74 | 152 | 2.0 | 6.0 | 0.00 | 0.00 | 0.00 | 35 | 1031.8 |
| 20260903031903 | 74 | 139 | 3.0 | 8.0 | 0.00 | 0.00 | 0.00 | 35 | 1031.8 |
| 20260903030903 | 74 | 196 | 2.0 | 7.0 | 0.00 | 0.00 | 0.00 | 32 | 1031.6 |
| 20260903030403 | 75 | 153 | 4.0 | 8.0 | 0.00 | 0.00 | 0.00 | 30 | 1031.5 |
| 20260903025903 | 75 | 130 | 2.0 | 7.0 | 0.00 | 0.00 | 0.00 | 28 | 1031.4 |
| 20260903025403 | 75 | 196 | 3.0 | 9.0 | 0.00 | 0.00 | 0.00 | 28 | 1031.4 |
| 20260903024903 | 75 | 206 | 5.0 | 12.0 | 0.00 | 0.00 | 0.00 | 28 | 1031.4 |
| 20260903024403 | 75 | 217 | 4.0 | 8.0 | 0.00 | 0.00 | 0.00 | 28 | 1031.4 |
| 20260903023903 | 75 | 202 | 4.0 | 8.0 | 0.00 | 0.00 | 0.00 | 30 | 1031.3 |
| 20260903023404 | 76 | 213 | 6.0 | 9.0 | 0.00 | 0.00 | 0.00 | 31 | 1031.2 |
| 20260903022403 | 76 | 201 | 5.0 | 9.0 | 0.00 | 0.00 | 0.00 | 33 | 1031.2 |
| 20260903021903 | 77 | 180 | 4.0 | 8.0 | 0.00 | 0.00 | 0.00 | 33 | 1031.2 |
| 20260903021403 | 77 | 201 | 5.0 | 9.0 | 0.00 | 0.00 | 0.00 | 34 | 1031.3 |
| 20260903020903 | 78 | 148 | 0.0 | 3.0 | 0.00 | 0.00 | 0.00 | 33 | 1031.2 |
| 20260903020403 | 78 | 228 | 2.0 | 5.0 | 0.00 | 0.00 | 0.00 | 33 | 1031.1 |
| 20260903015903 | 78 | 127 | 2.0 | 7.0 | 0.00 | 0.00 | 0.00 | 32 | 1031.0 |
| 20260903015404 | 78 | 172 | 2.0 | 6.0 | 0.00 | 0.00 | 0.00 | 32 | 1031.0 |
| 20260903014903 | 79 | 200 | 3.0 | 12.0 | 0.00 | 0.00 | 0.00 | 32 | 1030.9 |
| 20260903014403 | 79 | 212 | 7.0 | 13.0 | 0.00 | 0.00 | 0.00 | 31 | 1030.8 |
| 20260903013903 | 79 | 198 | 6.0 | 13.0 | 0.00 | 0.00 | 0.00 | 31 | 1030.8 |
| 20260903013403 | 80 | 204 | 9.0 | 16.0 | 0.00 | 0.00 | 0.00 | 30 | 1030.7 |
| 20260903012404 | 81 | 209 | 12.0 | 17.0 | 0.00 | 0.00 | 0.00 | 28 | 1030.5 |
| 20260903011903 | 81 | 212 | 9.0 | 20.0 | 0.00 | 0.00 | 0.00 | 27 | 1030.4 |
| 20260903011403 | 82 | 219 | 10.0 | 15.0 | 0.00 | 0.00 | 0.00 | 25 | 1030.4 |
| 20260903010903 | 83 | 215 | 11.0 | 17.0 | 0.00 | 0.00 | 0.00 | 25 | 1030.3 |
| 20260903005903 | 84 | 200 | 12.0 | 17.0 | 0.00 | 0.00 | 0.00 | 25 | 1030.3 |
| 20260903005403 | 85 | 188 | 6.0 | 16.0 | 0.00 | 0.00 | 0.00 | 25 | 1030.2 |
| 20260903004903 | 85 | 194 | 9.0 | 15.0 | 0.00 | 0.00 | 0.00 | 24 | 1030.2 |
| 20260903004405 | 86 | 193 | 7.0 | 18.0 | 0.00 | 0.00 | 0.00 | 21 | 1030.1 |
| 20260903003903 | 86 | 207 | 11.0 | 17.0 | 0.00 | 0.00 | 0.00 | 18 | 1030.1 |
| 20260903003403 | 86 | 211 | 12.0 | 17.0 | 0.00 | 0.00 | 0.00 | 19 | 1030.0 |
| 20260903002404 | 87 | 207 | 9.0 | 18.0 | 0.00 | 0.00 | 0.00 | 17 | 1030.0 |
| 20260903001903 | 87 | 214 | 12.0 | 16.0 | 0.00 | 0.00 | 0.00 | 18 | 1030.0 |
| 20260903001403 | 88 | 216 | 11.0 | 20.0 | 0.00 | 0.00 | 0.00 | 17 | 1030.0 |
| 20260903000404 | 88 | 192 | 5.0 | 13.0 | 0.00 | 0.00 | 0.00 | 20 | 1030.0 |
| 20260902235903 | 88 | 190 | 6.0 | 12.0 | 0.00 | 0.00 | 0.00 | 19 | 1029.9 |
| 20260902234904 | 88 | 210 | 6.0 | 13.0 | 0.00 | 0.00 | 0.00 | 18 | 1030.0 |
| 20260902234403 | 89 | 205 | 7.0 | 14.0 | 0.00 | 0.00 | 0.00 | 18 | 1030.0 |
| 20260902233403 | 89 | 207 | 6.0 | 14.0 | 0.00 | 0.00 | 0.00 | 18 | 1030.2 |
| 20260902232904 | 89 | 205 | 3.0 | 12.0 | 0.00 | 0.00 | 0.00 | 20 | 1030.3 |
| 20260902232403 | 89 | 218 | 11.0 | 16.0 | 0.00 | 0.00 | 0.00 | 19 | 1030.4 |
| 20260902231903 | 89 | 184 | 4.0 | 14.0 | 0.00 | 0.00 | 0.00 | 20 | 1030.5 |
| 20260902231403 | 89 | 197 | 3.0 | 12.0 | 0.00 | 0.00 | 0.00 | 19 | 1030.5 |
| 20260902230403 | 89 | 217 | 9.0 | 16.0 | 0.00 | 0.00 | 0.00 | 18 | 1030.6 |
| 20260902225903 | 89 | 217 | 9.0 | 15.0 | 0.00 | 0.00 | 0.00 | 19 | 1030.6 |
| 20260902225403 | 89 | 201 | 3.0 | 12.0 | 0.00 | 0.00 | 0.00 | 19 | 1030.6 |
| 20260902224903 | 89 | 183 | 6.0 | 12.0 | 0.00 | 0.00 | 0.00 | 18 | 1030.7 |
| 20260902224403 | 89 | 183 | 6.0 | 12.0 | 0.00 | 0.00 | 0.00 | 19 | 1030.8 |
| 20260902223903 | 89 | 233 | 7.0 | 12.0 | 0.00 | 0.00 | 0.00 | 18 | 1030.8 |
| 20260902223404 | 89 | 181 | 4.0 | 12.0 | 0.00 | 0.00 | 0.00 | 18 | 1030.8 |
| 20260902222903 | 89 | 170 | 5.0 | 12.0 | 0.00 | 0.00 | 0.00 | 19 | 1031.0 |
| 20260902222404 | 89 | 198 | 5.0 | 10.0 | 0.00 | 0.00 | 0.00 | 19 | 1031.0 |
| 20260902221903 | 89 | 202 | 6.0 | 15.0 | 0.00 | 0.00 | 0.00 | 19 | 1031.1 |
| 20260902221403 | 89 | 171 | 5.0 | 12.0 | 0.00 | 0.00 | 0.00 | 20 | 1031.2 |
| 20260902220904 | 89 | 232 | 9.0 | 15.0 | 0.00 | 0.00 | 0.00 | 18 | 1031.2 |
| 20260902220404 | 89 | 167 | 4.0 | 8.0 | 0.00 | 0.00 | 0.00 | 20 | 1031.2 |
| 20260902215903 | 89 | 212 | 4.0 | 13.0 | 0.00 | 0.00 | 0.00 | 20 | 1031.3 |
| 20260902215404 | 89 | 220 | 7.0 | 15.0 | 0.00 | 0.00 | 0.00 | 19 | 1031.3 |
| 20260902214904 | 89 | 213 | 7.0 | 13.0 | 0.00 | 0.00 | 0.00 | 18 | 1031.4 |
| 20260902214404 | 89 | 253 | 7.0 | 16.0 | 0.00 | 0.00 | 0.00 | 18 | 1031.5 |
| 20260902213903 | 89 | 194 | 3.0 | 7.0 | 0.00 | 0.00 | 0.00 | 19 | 1031.6 |
| 20260902213403 | 88 | 168 | 6.0 | 14.0 | 0.00 | 0.00 | 0.00 | 19 | 1031.6 |
| 20260902212903 | 88 | 173 | 5.0 | 10.0 | 0.00 | 0.00 | 0.00 | 19 | 1031.6 |
| 20260902212404 | 88 | 266 | 6.0 | 12.0 | 0.00 | 0.00 | 0.00 | 17 | 1031.7 |
| 20260902211904 | 88 | 208 | 6.0 | 16.0 | 0.00 | 0.00 | 0.00 | 18 | 1031.8 |
| 20260902211404 | 88 | 170 | 5.0 | 12.0 | 0.00 | 0.00 | 0.00 | 18 | 1031.7 |
| 20260902210403 | 88 | 175 | 5.0 | 13.0 | 0.00 | 0.00 | 0.00 | 19 | 1031.9 |
| 20260902205903 | 87 | 147 | 6.0 | 12.0 | 0.00 | 0.00 | 0.00 | 19 | 1032.0 |
| 20260902205404 | 87 | 173 | 4.0 | 10.0 | 0.00 | 0.00 | 0.00 | 18 | 1032.0 |
| 20260902204903 | 86 | 240 | 3.0 | 10.0 | 0.00 | 0.00 | 0.00 | 17 | 1032.1 |
| 20260902204404 | 86 | 222 | 9.0 | 14.0 | 0.00 | 0.00 | 0.00 | 17 | 1032.2 |
| 20260902203903 | 86 | 220 | 6.0 | 12.0 | 0.00 | 0.00 | 0.00 | 17 | 1032.2 |
| 20260902203404 | 86 | 257 | 7.0 | 16.0 | 0.00 | 0.00 | 0.00 | 16 | 1032.3 |
| 20260902202903 | 87 | 230 | 7.0 | 14.0 | 0.00 | 0.00 | 0.00 | 16 | 1032.3 |
| 20260902202403 | 87 | 215 | 5.0 | 14.0 | 0.00 | 0.00 | 0.00 | 16 | 1032.3 |
| 20260902201904 | 87 | 209 | 7.0 | 16.0 | 0.00 | 0.00 | 0.00 | 15 | 1032.3 |
| 20260902201403 | 86 | 241 | 3.0 | 10.0 | 0.00 | 0.00 | 0.00 | 17 | 1032.3 |
| 20260902200903 | 86 | 239 | 6.0 | 10.0 | 0.00 | 0.00 | 0.00 | 17 | 1032.3 |
| 20260902200404 | 86 | 193 | 4.0 | 12.0 | 0.00 | 0.00 | 0.00 | 17 | 1032.4 |
| 20260902195903 | 86 | 140 | 2.0 | 9.0 | 0.00 | 0.00 | 0.00 | 17 | 1032.4 |
| 20260902195403 | 86 | 211 | 3.0 | 10.0 | 0.00 | 0.00 | 0.00 | 17 | 1032.5 |
| 20260902194904 | 86 | 212 | 4.0 | 13.0 | 0.00 | 0.00 | 0.00 | 16 | 1032.6 |
| 20260902194403 | 85 | 223 | 6.0 | 15.0 | 0.00 | 0.00 | 0.00 | 17 | 1032.6 |
| 20260902193903 | 85 | 186 | 3.0 | 9.0 | 0.00 | 0.00 | 0.00 | 18 | 1032.6 |
| 20260902193404 | 85 | 210 | 9.0 | 17.0 | 0.00 | 0.00 | 0.00 | 17 | 1032.7 |
| 20260902192904 | 85 | 290 | 8.0 | 12.0 | 0.00 | 0.00 | 0.00 | 18 | 1032.7 |
| 20260902192404 | 85 | 242 | 3.0 | 13.0 | 0.00 | 0.00 | 0.00 | 18 | 1032.8 |
| 20260902191903 | 85 | 221 | 6.0 | 12.0 | 0.00 | 0.00 | 0.00 | 18 | 1032.7 |
| 20260902191404 | 84 | 274 | 2.0 | 15.0 | 0.00 | 0.00 | 0.00 | 19 | 1032.7 |
| 20260902190903 | 84 | 215 | 7.0 | 14.0 | 0.00 | 0.00 | 0.00 | 19 | 1032.8 |
| 20260902190403 | 84 | 277 | 5.0 | 10.0 | 0.00 | 0.00 | 0.00 | 18 | 1032.9 |
| 20260902184903 | 84 | 214 | 5.0 | 12.0 | 0.00 | 0.00 | 0.00 | 19 | 1032.9 |
| 20260902184404 | 84 | 84 | 4.0 | 10.0 | 0.00 | 0.00 | 0.00 | 20 | 1033.0 |
| 20260902183903 | 83 | 252 | 2.0 | 13.0 | 0.00 | 0.00 | 0.00 | 20 | 1033.0 |
| 20260902183403 | 83 | 262 | 4.0 | 12.0 | 0.00 | 0.00 | 0.00 | 19 | 1033.1 |
| 20260902182904 | 83 | 138 | 2.0 | 8.0 | 0.00 | 0.00 | 0.00 | 20 | 1033.1 |